Location: Musselshell
(46.5176°N, 108.0911°W)
Time: 15:36:49
(UTC+00:00)

YUBILEINY - Pass Details

Date: 04 July 2022
Orbit: 1478 x 1509 km, 82.5° (Epoch: 14 August)

Event Time Altitude Azimuth Distance (km) Brightness Sun altitude
Rises 09:09:16 0° 354° (N) 4,653 ? -16.1°
Reaches altitude 10° 09:13:14 10° 10° (N) 3,664 ? -15.8°
Maximum altitude 09:19:35 21° 57° (ENE) 2,860 ? -15.3°
Drops below altitude 10° 09:25:52 10° 104° (ESE) 3,634 ? -14.7°
Sets 09:29:43 0° 120° (ESE) 4,605 ? -14.4°
